| |
Missouri Department of Transportation

Social Media Facebook Twitter Flickr Instagram YouTube RSS

Current METAR Information for All MoDOT Locations 
AWOS Home - General Info for all Airports
Current AWOS for all Airports - Current METAR for all Airports
Glossary - Disclaimer - Other Links


Automated Weather Observation System
Date: 07-26-2017
 
Location Current METAR Record
HANNIBAL METAR KHAE 270427Z AUTO 00000KT 5SM BR BKN075 OVC095 26/23 A2997 RMK AO2 LTG DSNT E AND W
HARRISONVILLE  No current data available
LEBANON  No current data available
MALDEN  No current data available
MARSHALL METAR KMHL 270433Z AUTO 25005KT 7SM -VCTSRA SCT090 SCT120 26/26 A2998 RMK AO2 LTG DSNT W P0001
MARYVILLE  No current data available
MEXICO  No current data available
MOBERLY  No current data available
NEVADA  No current data available
PIEDMONT  No current data available
SIKESTON  No current data available
SULLIVAN  No current data available
WARSAW METAR KRAW 270427Z AUTO 00000KT 10SM -RA CLR 26/24 A2998 RMK AO2 LTG DSNT N AND NW
About Us
How Do I...
Contact Us
Missouri Department of Transportation
Central Office
105 W. Capitol Avenue
Jefferson City, MO 65102
1-888-ASK-MODOT (275-6636)
1-866-831-6277 (Motor Carrier Services)
Driver's License Offices
horz_bar
| | |
Missouri State Government
© 2013 Missouri Department of Transportation. All Rights Reserved.   Privacy Policy.
 
 
 
 
RSS FeedYoutubeBlogFlickrTwitter Facebook